Find Starlink 31443

NORAD ID: 59393 Int'l Des: 2024-062 Owner: SPXS Country: US Constellation: starlink operational
LEOCIRCULAR

实时位置

正在加载3D地球...

关于 Starlink 31443

正在加载描述...

即将过境

Passes for default location (London). Set your location on the main map for personalized predictions.

高度历史

Loading altitude history...

两行轨道根数

1 59393U 24062V 26125.98970583 .00000072 00000-0 13254-4 0 9996
2 59393 53.1602 336.5910 0000960 86.0809 274.0303 15.34385664118623
Epoch: May 5, 2026 • Age: 13 hours

当前状态

高度 462.8 km
速度 7.64 km/s
星下点 17.09°N, 82.18°E
发射日期 Apr 2, 2024
运行时间 2 years
类型 internet

技术详情

分类 Payload
质量 730.00 kg
干质量 700.00 kg
总质量 730.00 kg
长度 0.30 m
直径 4.10 m
跨度 29.00 m
形状 Box + pan
制造商 SPXS
平台类型 Starlink V2M
阶段状态 In Orbit
所有者/国家 SPXS/US

Most Searched